EW5980 Weather Reports


Display with metric or nautical units.
time (UTC)temp
F
wind
direction
speed
MPH
gust
MPH
rain 1hr
in
rain 24hr
in
rain mn
in
humidity
%
barometer
mb
20260831063059 79 0.0 0.0 0.00 0.00 0.00 78 1017.5
20260831061601 79 0.0 0.0 0.00 0.00 0.00 78 1017.6
20260831060106 79 0.0 0.0 0.00 0.00 0.00 78 1017.7
20260831054550 79 0.0 0.0 0.00 0.00 0.00 78 1017.5
20260831053054 80 0.0 0.0 0.00 0.00 0.00 77 1017.7
20260831051603 80 0.0 0.0 0.00 0.00 0.00 77 1017.4
20260831050059 80 0.0 0.0 0.00 0.00 0.00 76 1017.4
20260831044555 81 0.0 0.0 0.00 0.00 0.00 75 1017.5
20260831043051 81 0.0 0.0 0.00 0.00 0.00 75 1017.4
20260831041601 81 0.0 0.0 0.00 0.00 0.00 75 1017.4
20260831040058 82 0.0 0.0 0.00 0.00 0.00 74 1017.4
20260831034550 82 0.0 0.0 0.00 0.00 0.00 74 1017.2
20260831033055 82 0.0 0.0 0.00 0.00 0.00 73 1017.3
20260831031549 82 0.0 0.0 0.00 0.00 0.00 73 1017.1
20260831030113 83 0.0 0.0 0.00 0.00 0.00 72 1017.0
20260831024631 83 0.0 0.0 0.00 0.00 0.00 71 1017.0
20260831023048 84 0.0 0.0 0.00 0.00 0.00 70 1017.0
20260831021557 85 0.0 0.0 0.00 0.00 0.00 68 1017.0
20260831020058 85 0.0 0.0 0.00 0.00 0.00 68 1016.9
20260831014555 86 0.0 0.0 0.00 0.00 0.00 66 1016.5
20260831013109 86 0.0 0.0 0.00 0.00 0.00 65 1016.4
20260831011554 87 0.0 0.0 0.00 0.00 0.00 64 1016.2
20260831010052 87 0.0 0.0 0.00 0.00 0.00 62 1016.0
20260831004600 88 0.0 0.0 0.00 0.00 0.00 61 1015.8
20260831003057 89 0.0 0.0 0.00 0.00 0.00 59 1015.8
20260831001552 89 0.0 0.0 0.00 0.00 0.00 58 1015.8
20260831000048 90 0.0 0.0 0.00 0.00 0.00 56 1015.8
20260830234547 90 0.0 0.0 0.00 0.00 0.00 55 1015.7
20260830233057 91 0.0 0.0 0.00 0.00 0.00 55 1015.8
20260830231554 91 0.0 0.0 0.00 0.00 0.00 54 1015.9
20260830230049 91 0.0 0.0 0.00 0.00 0.00 53 1015.7
20260830224557 92 0.0 0.0 0.00 0.00 0.00 54 1015.7
20260830223056 92 0.0 0.0 0.00 0.00 0.00 53 1015.7
20260830221552 92 0.0 0.0 0.00 0.00 0.00 53 1015.8
20260830220050 92 0.0 0.0 0.00 0.00 0.00 53 1015.8
20260830214557 92 0.0 0.0 0.00 0.00 0.00 53 1015.9
20260830213046 93 0.0 0.0 0.00 0.00 0.00 52 1015.9
20260830211545 93 0.0 0.0 0.00 0.00 0.00 52 1016.1
20260830210059 93 0.0 0.0 0.00 0.00 0.00 51 1016.3
20260830204554 93 0.0 0.0 0.00 0.00 0.00 50 1016.5
20260830203101 93 0.0 0.0 0.00 0.00 0.00 51 1016.6
20260830201608 93 0.0 0.0 0.00 0.00 0.00 51 1016.8
20260830200056 93 0.0 0.0 0.00 0.00 0.00 51 1016.8
20260830194553 92 0.0 0.0 0.00 0.00 0.00 52 1017.1
20260830193047 92 0.0 0.0 0.00 0.00 0.00 53 1017.2
20260830191600 93 0.0 0.0 0.00 0.00 0.00 53 1017.4
20260830190056 93 0.0 0.0 0.00 0.00 0.00 53 1017.7
20260830184551 92 0.0 0.0 0.00 0.00 0.00 55 1017.8
20260830183055 93 0.0 0.0 0.00 0.00 0.00 53 1018.0
20260830181606 94 0.0 0.0 0.00 0.00 0.00 53 1018.1
20260830180056 93 0.0 0.0 0.00 0.00 0.00 55 1018.2
20260830174554 93 0.0 0.0 0.00 0.00 0.00 54 1018.4
20260830173110 93 0.0 0.0 0.00 0.00 0.00 55 1018.4
20260830171555 94 0.0 0.0 0.00 0.00 0.00 54 1018.8
20260830170053 94 0.0 0.0 0.00 0.00 0.00 56 1019.0
20260830164612 93 0.0 0.0 0.00 0.00 0.00 55 1019.1
20260830163106 92 0.0 0.0 0.00 0.00 0.00 57 1019.2
20260830161601 91 0.0 0.0 0.00 0.00 0.00 59 1019.3
20260830160059 91 0.0 0.0 0.00 0.00 0.00 60 1019.3
20260830154555 90 0.0 0.0 0.00 0.00 0.00 61 1019.4
20260830153053 90 0.0 0.0 0.00 0.00 0.00 57 1019.4
20260830151557 89 0.0 0.0 0.00 0.00 0.00 65 1019.4
20260830150058 88 0.0 0.0 0.00 0.00 0.00 66 1019.4
20260830144602 87 0.0 0.0 0.00 0.00 0.00 69 1019.3
20260830143058 85 0.0 0.0 0.00 0.00 0.00 73 1019.3
20260830141545 84 0.0 0.0 0.00 0.00 0.00 76 1019.2
20260830140057 82 0.0 0.0 0.00 0.00 0.00 77 1019.2
20260830134547 81 0.0 0.0 0.00 0.00 0.00 76 1019.3
20260830133138 80 0.0 0.0 0.00 0.00 0.00 75 1019.4
20260830131613 79 0.0 0.0 0.00 0.00 0.00 72 1019.4
20260830130052 78 0.0 0.0 0.00 0.00 0.00 67 1019.3
20260830124616 76 0.0 0.0 0.00 0.00 0.00 53 1019.0
20260830123058 75 0.0 0.0 0.00 0.00 0.00 54 1018.9
20260830121556 74 0.0 0.0 0.00 0.00 0.00 59 1018.7
20260830120052 74 0.0 0.0 0.00 0.00 0.00 61 1018.7
20260830114614 74 0.0 0.0 0.00 0.00 0.00 62 1018.5
20260830113103 75 0.0 0.0 0.00 0.00 0.00 65 1018.4
20260830111554 75 0.0 0.0 0.00 0.00 0.00 67 1018.1
20260830110050 75 0.0 0.0 0.00 0.00 0.00 67 1018.1
20260830104553 75 0.0 0.0 0.00 0.00 0.00 69 1017.9
20260830103057 75 0.0 0.0 0.00 0.00 0.00 71 1017.8
20260830101559 75 0.0 0.0 0.00 0.00 0.00 72 1017.7
20260830100056 75 0.0 0.0 0.00 0.00 0.00 72 1017.6
20260830094559 75 0.0 0.0 0.00 0.00 0.00 73 1017.6
20260830093056 76 0.0 0.0 0.00 0.00 0.00 74 1017.3
20260830091548 76 0.0 0.0 0.00 0.00 0.00 75 1017.2
20260830084603 76 0.0 0.0 0.00 0.00 0.00 76 1017.3
20260830083105 76 0.0 0.0 0.00 0.00 0.00 77 1017.3
20260830081550 76 0.0 0.0 0.00 0.00 0.00 78 1017.1
20260830080100 76 0.0 0.0 0.00 0.00 0.00 78 1017.3
20260830074556 76 0.0 0.0 0.00 0.00 0.00 78 1017.4
20260830073053 76 0.0 0.0 0.00 0.00 0.00 78 1017.4
20260830071600 76 0.0 0.0 0.00 0.00 0.00 78 1017.5
20260830070109 76 0.0 0.0 0.00 0.00 0.00 77 1017.5
20260830064558 76 0.0 0.0 0.00 0.00 0.00 76 1017.7